DECAYED

OBJECT B, 60204 (Decayed)

Orbit data source: Space-Track

You're viewing an uncataloged RSO

Recently launched and/or uncataloged RSOs may have evolving metadata. Metadata may include the following, but is not limited to: Owner, Manufacturer, Bus, Motor, and Mission.

OBJECT B, 60204 was an American satellite in LEO that was launched on Thu, 04 Jul 2024 UTC via an FIREFLY ALPHA launch vehicle from the Air Force Western Test Range (AFWTR). Unknown objects in Earth's orbit typically refer to objects detected orbiting the Earth but have not yet been identified or cataloged. These objects could be anything from previously untracked satellites, spent rocket stages, debris from satellite collisions, or even natural meteoroids temporarily captured by Earth's gravity. This object's orbit decayed before it could be identified.

Loading next visibility...
Identifier
60204, 2024-125B
Orbit
Decayed
Country
Flag of USUS
Related business
None
Manufacturer
Unknown
Mission
Decayed Amateur Science
Bus & Motor
Unknown
Mass
Unknown
Launch date (UTC)
2024-07-04 (2 years ago)
Launch vehicle
FIREFLY ALPHA
Launch site
Air Force Western Test Range (AFWTR)
Object type
Unknown
Shape & HBR
Box, 0.2 m
Radar Cross Section
0.035 m², Medium (>0.1 m² and < 1m²)

Expand to show TLE details & history
Last TLE update: 1 year ago

TLE from 1 year ago
0 OBJECT B
1 60204U 24125B   25185.20120778  .13894512  24915-5  38622-3 0  9997
2 60204  97.2318  45.9344 0010810 255.1767 104.8338 16.44661849 56373
Epoch: 2025-07-04T04:49Z
TLE epoch observation values (Epoch: 2025-07-04T04:49:44.352Z)
Latitude
-0.00001°
Longitude
51.0426°
Altitude
158.508 km
Speed
7.81 km/s
True Right ascension
03h 03m 44s
True Declination
0° 00' 00"
Sunlit
Object was in daylight at epoch
Visualization orbit readout
Latitude
Unknown
Longitude
Unknown
Altitude
Unknown
Speed
Unknown
Apparent Right ascension
Unknown
Apparent Declination
Unknown
Sunlit
N/A
Visualization observer readout
Local Sidereal Time
00:18:18
Azimuth
Unknown
Elevation
Unknown
Doppler factor
Unknown
Orbital elements
Apogee altitude
157.282 km
Perigee altitude
143.168 km
Semi-major axis
6,528.362 km
Eccentricity
0.00108
Inclination
97.2318°
RAAN
45.9344°
Arg. of periapsis
255.1767°
True anomaly
104.9535°
Mean anomaly
104.8338°
Eccentric anomaly
104.89366°
Mean motion
4.11469 °/min
Orbital period
87.49 mins
BSTAR
0.00038622
Loading maneuver chart data...
Computing Atmospheric mass density...
Loading historical data...
Loading historical data...
Loading historical data...
Loading historical data...
Loading historical data...
Loading historical data...
Loading historical data...

Documentation

Showing up to 5 results
|